ORBCOMM FM112

Last updated on Wed Sep 23 2026 00:03:43 GMT+0000 (Coordinated Universal Time)

1 41184U 15081F 26265.11439297 .00000333 00000+0 10648-3 0 9990 2 41184 46.9982 171.8720 0003401 295.8084 64.2451 14.58964344573104
UTC large
Height (km)
Speed (km/s)
/
Latitude / Longitude
Inclination (degrees)
Orbital Period (minutes)
Azimuth
Elevation
Range (km)
Doppler Factor

Next 0 passes for location: London (51.5072 / 0.1276)

No passes found over London.
ORBCOMM FM112